DW1024 Weather Reports


Display with metric or nautical units.
time (UTC)temp
F
wind
direction
speed
MPH
gust
MPH
rain 1hr
in
rain 24hr
in
rain mn
in
humidity
%
barometer
mb
20260506043409 49 246 0.0 1.0 0.00 0.19 0.00 93 1008.4
20260506041909 49 246 0.0 1.0 0.00 0.19 0.00 93 1008.5
20260506034909 49 246 0.0 1.0 0.00 0.19 0.00 93 1008.6
20260506033403 49 246 0.0 1.0 0.00 0.19 0.00 93 1008.7
20260506030403 49 246 0.0 3.0 0.00 0.19 0.00 93 1008.9
20260506024901 49 178 0.0 1.0 0.00 0.19 0.00 93 1009.2
20260506021902 49 179 1.0 3.0 0.00 0.19 0.00 92 1009.1
20260506020404 49 223 1.0 2.0 0.00 0.19 0.00 92 1008.9
20260506014904 49 223 0.0 1.0 0.00 0.19 0.00 92 1009.1
20260506013402 50 223 0.0 0.0 0.00 0.19 0.00 92 1009.1
20260506011907 51 223 0.0 1.0 0.00 0.19 0.00 92 1009.2
20260506010402 51 223 0.0 1.0 0.00 0.19 0.00 92 1009.5
20260506004903 51 223 0.0 3.0 0.00 0.19 0.00 92 1009.3
20260506003401 52 223 0.0 2.0 0.00 0.19 0.00 92 1009.5
20260506001903 52 223 0.0 2.0 0.00 0.19 0.00 92 1009.5
20260506000402 52 223 0.0 0.0 0.00 0.19 0.00 92 1009.8
20260505234902 53 223 0.0 1.0 0.00 0.19 0.00 92 1009.9
20260505233404 53 223 0.0 2.0 0.00 0.19 0.00 92 1010.0
20260505231901 53 223 1.0 4.0 0.00 0.19 0.00 92 1010.3
20260505230405 53 230 1.0 4.0 0.00 0.19 0.00 92 1010.3
20260505224904 54 213 2.0 7.0 0.00 0.19 0.00 92 1010.3
20260505220357 55 283 2.0 7.0 0.04 0.19 0.00 91 1010.6
20260505214857 55 242 1.0 5.0 0.08 0.15 0.19 91 1010.5
20260505213400 55 306 2.0 7.0 0.12 0.15 0.19 90 1010.7
20260505211858 55 295 3.0 9.0 0.11 0.15 0.17 89 1010.6
20260505210359 56 195 1.0 5.0 0.10 0.15 0.15 88 1010.5
20260505204859 56 196 2.0 5.0 0.06 0.05 0.11 87 1010.3
20260505201858 57 219 2.0 5.0 0.04 0.05 0.06 84 1009.7
20260505200350 58 236 1.0 5.0 0.03 0.05 0.05 82 1009.5
20260505193353 60 168 0.0 3.0 0.01 0.02 0.03 76 1008.5
20260505191847 60 269 0.0 2.0 0.00 0.02 0.02 74 1008.3
20260505190349 61 269 0.0 2.0 0.00 0.02 0.02 70 1008.0
20260505184850 61 269 0.0 3.0 0.00 0.02 0.02 68 1007.7
20260505181850 61 24 2.0 6.0 0.00 0.02 0.02 65 1007.6
20260505180346 62 283 2.0 8.0 0.00 0.02 0.02 67 1007.5
20260505173349 63 198 2.0 6.0 0.00 0.02 0.02 66 1007.2
20260505170344 64 74 2.0 5.0 0.00 0.02 0.02 69 1007.0
20260505164841 65 176 2.0 7.0 0.00 0.02 0.02 68 1007.0
20260505161841 64 73 1.0 3.0 0.00 0.02 0.02 71 1007.1
20260505160342 62 57 2.0 5.0 0.00 0.02 0.02 78 1007.1
20260505153341 61 51 2.0 6.0 0.02 0.01 0.02 82 1007.3
20260505151842 62 341 0.0 5.0 0.02 0.01 0.02 82 1007.6
20260505150342 63 264 1.0 3.0 0.02 0.01 0.02 75 1007.6
20260505140341 71 271 2.0 9.0 0.00 0.00 0.00 46 1006.8
20260505124835 75 220 2.0 6.0 0.00 0.00 0.00 43 1006.7
20260505123338 76 280 1.0 4.0 0.00 0.00 0.00 40 1006.8
20260505121837 75 0 1.0 4.0 0.00 0.00 0.00 40 1006.9
20260505114835 76 88 2.0 9.0 0.00 0.00 0.00 40 1006.9
20260505113336 78 282 1.0 7.0 0.00 0.00 0.00 38 1007.0
20260505111835 78 260 2.0 4.0 0.00 0.00 0.00 35 1007.1
20260505110337 77 53 2.0 6.0 0.00 0.00 0.00 37 1007.3
20260505101835 74 69 1.0 6.0 0.00 0.00 0.00 42 1008.0
20260505093336 73 271 1.0 4.0 0.00 0.00 0.00 47 1008.6
20260505091835 73 186 1.0 4.0 0.00 0.00 0.00 46 1008.8
20260505090336 73 245 2.0 5.0 0.00 0.00 0.00 46 1008.8
20260505084833 72 36 2.0 5.0 0.00 0.00 0.00 49 1009.0
20260505083334 70 55 1.0 4.0 0.00 0.00 0.00 56 1009.2
20260505081833 70 294 1.0 3.0 0.00 0.00 0.00 60 1009.3
20260505080335 67 199 1.0 3.0 0.00 0.00 0.00 63 1009.6
20260505074835 66 227 1.0 4.0 0.00 0.00 0.00 67 1009.6
20260505073334 64 129 1.0 4.0 0.00 0.00 0.00 69 1009.7
20260505071834 63 250 1.0 4.0 0.00 0.00 0.00 71 1009.8
20260505070343 62 256 1.0 3.0 0.00 0.00 0.00 74 1009.9
20260505063449 58 295 1.0 2.0 0.00 0.00 0.00 80 1010.0
20260505061949 57 261 1.0 4.0 0.00 0.00 0.00 84 1010.1
20260505060451 55 219 1.0 3.0 0.00 0.00 0.00 85 1010.3
20260505054946 54 243 0.0 3.0 0.00 0.00 0.00 89 1010.3
20260505053448 51 175 1.0 3.0 0.00 0.00 0.00 92 1010.3
20260505051945 48 174 0.0 3.0 0.00 0.00 0.00 91 1010.4
20260505050446 47 285 0.0 0.0 0.00 0.00 0.00 89 1010.5